Regional Weather Roundup
Issued by NWS Kansas City/Pleasant Hill, MO

Home | Current Version | Previous Version | Text Only | Print | Product List | Glossary On
Versions: 1 2 3 4 5 6 7 8 9 10 11 12 13 14 15 16 17 18 19 20 21 22 23 24 25 26 27 28 29 30 31 32 33 34 35 36 37 38 39 40 41 42 43 44 45 46 47 48 49 50
000
ASUS43 KEAX 221711
RWREAX

WEATHER ROUNDUP FOR EASTERN KANSAS AND NORTHWEST MISSOURI
NATIONAL WEATHER SERVICE KANSAS CITY/PLEASANT HILL MO
1200 PM CDT FRI MAY 22 2015

KSZ040-057-103>105-MOZ028-029-037-043-221800-
...KANSAS CITY METROPOLITAN AREA...

CITY           SKY/WX    TMP DP  RH WIND       PRES   REMARKS
K.C. INTL      CLOUDY    59  49  69 SW7       30.28F
K.C. DOWNTOWN  CLOUDY    62  47  57 S7        30.27F
LEES SUMMIT    CLOUDY    60  45  57 SW9       30.29F
OLATHE - IXD   CLOUDY    59  47  64 S8        30.28F
OLATHE - OJC   CLOUDY    58  47  66 S6        30.27F
LAWRENCE       CLOUDY    60  48  64 SE8       30.26F

$$

MOZ001>008-011>017-020>025-030>033-038>040-044>046-053-054-221800-
...NORTHERN AND CENTRAL MISSOURI...

CITY           SKY/WX    TMP DP  RH WIND       PRES   REMARKS
ST. JOSEPH     CLOUDY    62  50  64 S8        30.27F
MOSBY          CLOUDY    61  46  59 SW6       30.28S
WARRENSBURG    CLOUDY    63  46  55 SW6       30.29S
WHITEMAN AFB   CLOUDY    62  48  60 SW8       30.28S
CLINTON        CLOUDY    61  50  67 S7        30.31R
SEDALIA        CLOUDY    63  51  65 SW7       30.30R
WARSAW         NOT AVBL
CHILLICOTHE      N/A     66  53  63 SW3       30.27R
KIRKSVILLE     CLOUDY    69  52  54 W5        30.25S

$$

MOZ041-047>049-056>058-063>065-088>090-097-221800-
...EASTERN AND SOUTHERN MISSOURI...

CITY           SKY/WX    TMP DP  RH WIND       PRES   REMARKS
ST. LOUIS INTL PTSUNNY   73  50  44 W5        30.25F
SPIRIT OF STL  PTSUNNY   71  50  47 S5        30.24F
COLUMBIA       CLOUDY    68  49  50 VRB5      30.27S
JEFFERSON CITY CLOUDY    69  47  45 NW5       30.27S
ROLLA          CLOUDY    65  50  58 SW6       30.27S
OSAGE BEACH    CLOUDY    64  48  55 SW6       30.29F
SPRINGFIELD    CLOUDY    64  45  49 SE10      30.29S
BRANSON        PTSUNNY   63  45  51 SE14      30.30F
JOPLIN         CLOUDY    62  46  55 SE6       30.29S
WEST PLAINS    MOSUNNY   62  44  51 SE6       30.31F

$$

IAZ060-094-KSZ022-034>040-054-083-096-NEZ052-066-093-221800-
...KANSAS...SOUTHEAST NEBRASKA AND IOWA...

CITY           SKY/WX    TMP DP  RH WIND       PRES   REMARKS
TOPEKA         CLOUDY    61  48  62 SE7       30.25F
MANHATTAN      LGT RAIN  60  48  64 SE9       30.22F
EMPORIA        LGT RAIN  59  48  67 SE13G22   30.21F
CHANUTE        LGT RAIN  60  48  64 SE12      30.25F
WICHITA        CLOUDY    55  52  89 SE8       30.21S
OMAHA          CLOUDY    67  44  43 SE5       30.23F
LINCOLN        CLOUDY    60  48  64 SE6       30.25S
FALLS CITY     CLOUDY    62  48  60 S6        30.25F
LAMONI         CLOUDY    70  50  49 W5        30.24S
DES MOINES     CLOUDY    74  41  30 S6        30.23R

$$




USA.gov is the U.S. government's official web portal to all federal, state and local government web resources and services.